This demonstration page uses our WeatherBlox Daily Observations layout. Learn more.

Left ArrowRight Arrow

Hourly Observations for March 19, 2018

Temp ( °F °C ) Dew Point ( °F °C ) Humidity (%) Winds ( mph kmh ) Pressure ( in mb ) Visibility ( mi km ) Precip ( " mm )
12:15 am 00:15 Clear 36 2 27 -3 70 70 N N/A 29.97 1015 10 16 N/A
12:35 am 00:35 Clear 36 2 27 -3 70 70 N N/A 29.94 1014 10 16 N/A
12:55 am 00:55 Clear 36 2 27 -3 70 70 N N/A 29.97 1015 10 16 N/A
1:15 am 01:15 Clear 32 undefined 27 -3 80 80 N N/A 29.97 1015 10 16 N/A
1:35 am 01:35 Clear 34 1 28 -2 81 81 N N/A 29.94 1014 10 16 N/A
1:55 am 01:55 Clear 32 undefined 30 -1 93 93 N N/A 29.94 1014 10 16 N/A
2:15 am 02:15 Clear 34 1 28 -2 81 81 N N/A 29.97 1015 10 16 N/A
2:35 am 02:35 Clear 32 undefined 27 -3 80 80 N N/A 29.97 1015 10 16 N/A
2:55 am 02:55 Clear 32 undefined 27 -3 80 80 N N/A 29.94 1014 10 16 N/A
3:15 am 03:15 Clear 32 undefined 25 -4 75 75 WSW 3 6 29.94 1014 10 16 N/A
3:35 am 03:35 Clear 32 undefined 27 -3 80 80 N N/A 29.94 1014 10 16 N/A
3:55 am 03:55 Clear 32 undefined 27 -3 80 80 N N/A 29.94 1014 10 16 N/A
4:15 am 04:15 Clear 32 undefined 27 -3 80 80 W 3 6 29.91 1013 10 16 N/A
4:35 am 04:35 Clear 32 undefined 27 -3 80 80 N N/A 29.91 1013 10 16 N/A
4:55 am 04:55 Clear 30 -1 27 -3 86 86 N N/A 29.91 1013 10 16 N/A
5:15 am 05:15 Clear 30 -1 27 -3 86 86 N N/A 29.91 1013 10 16 N/A
5:35 am 05:35 Clear 30 -1 27 -3 86 86 N N/A 29.94 1014 10 16 N/A
5:55 am 05:55 Clear 30 -1 27 -3 86 86 N N/A 29.94 1014 10 16 N/A
6:15 am 06:15 Clear 32 undefined 27 -3 80 80 N N/A 29.94 1014 10 16 N/A
6:35 am 06:35 Clear 32 undefined 27 -3 80 80 N N/A 29.94 1014 10 16 N/A
6:55 am 06:55 Clear 32 undefined 27 -3 80 80 N N/A 29.94 1014 10 16 N/A
7:15 am 07:15 Sunny 30 -1 27 -3 86 86 N 3 6 29.94 1014 10 16 N/A
7:35 am 07:35 Sunny 32 undefined 27 -3 80 80 N N/A 29.94 1014 10 16 N/A
7:55 am 07:55 Sunny 32 undefined 27 -3 80 80 N N/A 29.94 1014 10 16 N/A
8:15 am 08:15 Sunny 32 undefined 28 -2 87 87 N N/A 29.94 1014 10 16 N/A
8:35 am 08:35 Sunny 34 1 28 -2 81 81 N N/A 29.94 1014 10 16 N/A
8:55 am 08:55 Sunny 37 3 30 -1 75 75 N N/A 29.94 1014 10 16 N/A
9:15 am 09:15 Sunny 39 4 28 -2 65 65 N N/A 29.94 1014 10 16 N/A
9:35 am 09:35 Sunny 43 6 30 -1 61 61 N N/A 29.94 1014 10 16 N/A
9:55 am 09:55 Partly Cloudy 45 7 30 -1 57 57 NNE 3 6 29.94 1014 10 16 N/A
10:15 am 10:15 Mostly Cloudy 46 8 28 -2 50 50 NNE 5 7 29.94 1014 10 16 N/A
10:35 am 10:35 Mostly Cloudy 50 10 28 -2 43 43 NNE 8 13 29.91 1013 10 16 N/A
10:55 am 10:55 Cloudy 50 10 28 -2 43 43 NE 8 13 29.91 1013 10 16 N/A
11:15 am 11:15 Cloudy 52 11 28 -2 41 41 NE 7 11 29.91 1013 10 16 N/A
11:35 am 11:35 Cloudy 52 11 28 -2 41 41 NNE 5 7 29.91 1013 10 16 N/A
11:55 am 11:55 Cloudy 54 12 30 -1 41 41 NE 5 7 29.91 1013 10 16 N/A
12:15 pm 12:15 Cloudy 54 12 30 -1 41 41 NE 8 13 29.91 1013 10 16 N/A
12:35 pm 12:35 Cloudy 55 13 28 -2 36 36 N N/A 29.91 1013 10 16 N/A
12:55 pm 12:55 Cloudy 57 14 28 -2 33 33 E 5 7 29.91 1013 10 16 N/A
1:15 pm 13:15 Cloudy 55 13 28 -2 36 36 SSE 5 7 29.91 1013 10 16 N/A
1:35 pm 13:35 Cloudy 55 13 28 -2 36 36 N N/A 29.88 1012 10 16 N/A
1:55 pm 13:55 Cloudy 59 15 28 -2 31 31 SE 8 13 29.88 1012 10 16 N/A
2:15 pm 14:15 Partly Cloudy 59 15 28 -2 31 31 ESE 7 11 29.88 1012 10 16 N/A
2:35 pm 14:35 Partly Cloudy 59 15 28 -2 31 31 NNE 5 7 29.85 1011 10 16 N/A
2:55 pm 14:55 Partly Cloudy 61 16 28 -2 29 29 S 3 6 29.85 1011 10 16 N/A
3:15 pm 15:15 Partly Cloudy 61 16 28 -2 29 29 N N/A 29.83 1010 10 16 N/A
3:35 pm 15:35 Partly Cloudy 61 16 28 -2 29 29 SE 6 9 29.83 1010 10 16 N/A
3:55 pm 15:55 Partly Cloudy 61 16 28 -2 29 29 N N/A 29.83 1010 10 16 N/A
4:15 pm 16:15 Sunny 61 16 30 -1 31 31 SE 3 6 29.83 1010 10 16 N/A
4:35 pm 16:35 Sunny 61 16 30 -1 31 31 SE 8 13 29.83 1010 10 16 N/A
4:55 pm 16:55 Sunny 61 16 30 -1 31 31 SSE 9 15 29.83 1010 10 16 N/A
5:15 pm 17:15 Sunny 61 16 30 -1 31 31 S 10 17 29.83 1010 10 16 N/A
5:35 pm 17:35 Sunny 61 16 30 -1 31 31 SE 5 7 29.83 1010 10 16 N/A
5:55 pm 17:55 Sunny 59 15 30 -1 34 34 SE 8 13 29.83 1010 10 16 N/A
6:15 pm 18:15 Sunny 59 15 30 -1 34 34 SSE 14 22 29.83 1010 10 16 N/A
6:35 pm 18:35 Sunny 57 14 28 -2 33 33 SSE 12 19 29.83 1010 10 16 N/A
6:55 pm 18:55 Sunny 55 13 28 -2 36 36 SE 8 13 29.83 1010 10 16 N/A
7:15 pm 19:15 Sunny 54 12 28 -2 38 38 SSE 9 15 29.85 1011 10 16 N/A
7:35 pm 19:35 Clear 54 12 28 -2 38 38 SSE 8 13 29.85 1011 10 16 N/A
7:55 pm 19:55 Clear 52 11 30 -1 44 44 SE 6 9 29.85 1011 10 16 N/A
8:15 pm 20:15 Clear 52 11 32 undefined 47 47 SSE 7 11 29.88 1012 10 16 N/A
8:35 pm 20:35 Clear 50 10 32 undefined 50 50 SE 5 7 29.88 1012 10 16 N/A
8:55 pm 20:55 Partly Cloudy 50 10 32 undefined 50 50 N N/A 29.88 1012 10 16 N/A
9:15 pm 21:15 Mostly Cloudy 50 10 32 undefined 50 50 ESE 5 7 29.88 1012 10 16 N/A
9:35 pm 21:35 Mostly Cloudy 50 10 32 undefined 50 50 E 3 6 29.88 1012 10 16 N/A
9:55 pm 21:55 Partly Cloudy 50 10 32 undefined 50 50 E 3 6 29.88 1012 10 16 N/A
10:15 pm 22:15 Mostly Cloudy 48 9 32 undefined 54 54 ESE 6 9 29.88 1012 10 16 N/A
10:35 pm 22:35 Cloudy 48 9 34 1 58 58 E 5 7 29.88 1012 10 16 N/A
10:55 pm 22:55 Cloudy 46 8 34 1 62 62 ENE 6 9 29.91 1013 10 16 N/A
11:15 pm 23:15 Cloudy 46 8 34 1 62 62 E 6 9 29.91 1013 10 16 N/A
11:35 pm 23:35 Cloudy 46 8 32 undefined 57 57 E 6 9 29.91 1013 10 16 N/A
11:55 pm 23:55 Cloudy 46 8 32 undefined 57 57 E 8 13 29.91 1013 10 16 N/A

Powered by AerisWeather